Regional Weather Roundup
Issued by NWS

Home | Current Version | Previous Version | Graphics & Text | Print | Product List | Glossary On
Versions: 1 2 3 4 5 6 7 8 9 10 11 12 13 14 15 16 17 18 19 20 21 22 23 24 25 26 27 28 29 30 31 32 33 34 35 36 37 38 39 40 41 42 43 44 45 46 47 48 49 50
000
ASUS43 KBIS 280202
RWRND

NORTH DAKOTA REGIONAL WEATHER ROUNDUP
NATIONAL WEATHER SERVICE BISMARCK ND
900 PM CDT TUE JUN 27 2017

NOTE: "FAIR" INDICATES FEW OR NO CLOUDS BELOW 12,000 FEET WITH NO
SIGNIFICANT WEATHER AND/OR OBSTRUCTIONS TO VISIBILITY.


NDZ001>003-009>011-017-280300-
NORTHWEST NORTH DAKOTA

CITY           SKY/WX    TMP DP  RH WIND       PRES   REMARKS
WILLISTON      CLOUDY    77  56  48 N12       29.60R
MINOT          CLOUDY    81  60  48 CALM      29.51R
MINOT AFB      MOCLDY    75  65  71 NW3       29.50R
$$

NDZ018>021-031>035-040>046-280300-
SOUTHWEST NORTH DAKOTA

CITY           SKY/WX    TMP DP  RH WIND       PRES   REMARKS
BISMARCK       CLOUDY    78  59  51 W21G32    29.52R
DICKINSON      MOCLDY    77  50  38 N16G26    29.55R
GARRISON         N/A     72  64  76 NW7       29.50S
HETTINGER ARPT MOCLDY    81  46  29 NW13      29.60R
$$

NDZ004>008-012>016-024-026-027-054-280300-
NORTHEAST NORTH DAKOTA

CITY           SKY/WX    TMP DP  RH WIND       PRES   REMARKS
GRAND FORKS    PTCLDY    73  50  44 SE16      29.62F
GRND FRKS AFB  PTCLDY    72  49  44 SE15      29.61F
DEVILS LAKE    CLOUDY    72  55  55 SE14      29.57F
$$

NDZ022-023-025-028>030-036>039-047>053-280300-
SOUTHEAST NORTH DAKOTA

CITY           SKY/WX    TMP DP  RH WIND       PRES   REMARKS
FARGO          CLOUDY    71  50  47 SE13      29.64F
JAMESTOWN      CLOUDY    75  49  39 SE17      29.57F
$$





USA.gov is the U.S. government's official web portal to all federal, state and local government web resources and services.